User: anonymous   Login
Location: Dreilärchen
(47.9312°N, 8.6113°E)
Time: 16:05:28
(UTC+00:00)
Language:

Cosmos 2184 Rocket - Orbit

View from above orbital plane
View from above orbital plane
View from above satellite
View from above satellite

Ground track
Ground track

The orbit data is extracted from the following two-line orbital elements,

1 21938U 92020B   22228.76743878  .00000150  00000-0  14073-3 0  9996
2 21938  82.9294  39.8050 0028503 330.8763  44.5669 13.75306275522307
Epoch (UTC): 16 August 2022 18:25:06
Eccentricity: 0.0028503
inclination: 82.9294°
perigee height: 959 km
apogee height: 1001 km
right ascension of ascending node: 39.8050°
argument of perigee: 330.8763°
revolutions per day: 13.75306275
mean anomaly at epoch: 44.5669°
orbit number at epoch: 52230

The dashed part of the orbit path shows where the satellite is in the earth's shadow,  

DLR